GFSNGP_250_rhum_369.txt.gz
RH
72 77 83 74 53 42 35 29 21 12 9 9 8 8 9 8 9 11 13 17 19 20 45 58 64 71 75 89 100 100 100 100 100 100 100 100 100 100 100 100 100 100 100 100
75 77 81 87 76 66 51 30 23 21 14 9 10 9 9 9 9 9 11 13 16 20 20 32 50 64 70 72 87 100 100 100 100 100 100 100 100 100 100 100 100 100 100 100
69 74 73 74 79 83 67 56 42 31 17 14 10 9 9 9 9 9 10 10 12 15 19 21 29 41 52 57 65 79 96 100 100 100 100 100 100 100 100 100 100 100 100 100
66 63 68 71 73 73 68 73 60 47 41 19 14 10 9 10 10 9 9 10 10 12 15 18 21 28 32 41 49 59 70 83 99 100 100 100 100 100 100 100 100 100 100 100
68 78 78 74 71 70 64 76 60 52 39 37 24 16 9 9 8 10 10 9 10 10 11 14 18 20 28 27 34 44 52 60 71 87 100 100 100 100 100 100 100 100 100 100
72 80 77 69 77 78 65 66 59 57 50 46 34 26 15 9 9 8 9 10 10 9 10 10 13 18 21 28 25 30 38 48 52 56 67 88 100 100 100 100 100 100 100 100
78 83 90 85 81 74 62 60 61 55 54 43 32 27 24 15 9 8 8 8 10 11 10 9 10 12 17 22 28 27 28 34 43 44 45 51 64 83 100 100 100 100 100 100
81 73 79 81 83 71 76 66 60 50 54 45 36 28 23 22 14 8 7 8 9 9 11 11 11 10 11 15 21 25 26 28 32 39 38 35 35 43 70 97 100 100 100 100
82 87 83 90 92 89 95 71 66 50 49 40 37 29 28 24 20 12 8 7 8 9 9 11 12 12 11 11 14 18 24 25 27 33 37 34 30 34 42 64 94 100 100 100
85 86 93 85 89 91 94 87 74 60 52 38 31 29 27 24 24 19 12 8 8 8 8 9 10 12 13 13 12 12 16 22 25 28 30 33 34 33 38 46 63 98 100 100
88 88 87 89 95 95 94 89 90 70 55 42 30 25 24 27 23 22 20 12 8 8 8 8 9 10 13 13 14 13 13 14 18 23 25 31 34 35 36 39 52 60 96 100
93 90 83 95 96 99 98 90 91 74 55 52 34 28 24 26 27 23 22 19 12 9 9 8 8 9 10 12 14 15 15 14 14 16 22 26 28 31 35 35 36 44 64 94
94 99 86 97 100 100 99 88 76 80 63 41 32 28 26 26 28 25 28 24 19 13 9 9 9 8 9 10 11 13 15 17 17 16 17 18 24 31 35 39 39 39 40 44
90 80 98 93 100 100 100 97 84 72 54 42 31 23 28 26 28 28 30 33 26 19 11 9 9 10 8 9 11 10 12 16 16 18 18 18 20 22 32 43 47 49 47 44
99 82 97 98 100 93 100 87 78 55 45 36 29 22 28 30 31 30 35 36 32 25 16 10 9 10 10 9 9 10 12 12 14 18 18 20 20 20 22 28 40 53 61 63
85 96 100 100 95 97 92 83 71 36 32 30 21 19 23 31 32 31 33 35 31 27 22 13 10 10 10 10 10 9 9 12 12 13 18 19 20 22 22 22 24 34 41 64
89 99 100 100 88 86 73 80 51 21 20 21 17 17 23 30 34 30 32 34 33 25 18 14 10 10 10 10 10 9 9 9 11 13 13 16 21 22 23 25 26 26 31 38
98 100 97 93 100 87 83 64 32 17 16 17 17 18 24 28 34 34 31 31 28 23 15 12 10 10 10 10 10 9 9 9 9 10 12 14 16 20 24 25 28 30 31 34
100 99 96 97 99 88 70 45 21 16 16 17 20 21 26 31 36 34 33 27 20 18 12 10 10 10 9 9 9 8 8 8 8 8 9 11 15 17 20 24 26 28 32 38
99 100 98 100 97 73 50 28 17 16 17 20 23 24 25 28 34 30 28 21 15 14 11 9 8 9 9 8 8 7 6 7 7 7 8 9 10 14 17 21 26 30 36 40
100 100 100 96 81 52 28 18 16 18 23 27 26 28 29 26 25 23 20 16 11 11 9 9 8 8 8 7 6 6 5 5 6 6 7 8 9 10 13 17 19 24 29 33
100 100 100 74 72 29 18 15 16 21 25 29 29 28 26 21 17 15 13 12 9 9 8 8 8 8 6 6 5 5 4 4 4 5 6 7 8 8 9 12 16 18 24 28
100 99 82 71 44 19 16 16 19 24 28 29 26 23 20 16 13 13 10 8 8 8 8 8 8 7 6 5 4 4 4 4 4 5 6 6 8 8 9 10 11 14 18 21
99 73 71 39 21 17 16 19 21 24 27 25 22 19 15 14 10 10 8 7 7 7 8 8 8 7 5 4 4 4 4 4 4 4 5 6 7 8 8 9 10 10 13 16
82 78 41 22 18 18 20 21 22 23 24 22 18 15 11 10 9 7 7 7 7 7 7 7 7 6 5 4 4 4 4 4 4 4 5 6 6 7 8 8 9 10 11 12
73 38 22 19 19 23 24 24 23 22 20 17 14 12 9 8 7 7 7 7 7 7 7 7 7 6 5 4 4 4 4 4 4 4 4 5 6 6 7 8 8 9 10 11
34 22 21 22 24 24 24 22 20 17 14 11 10 8 7 7 7 7 7 7 7 7 6 6 6 5 4 4 4 4 4 4 4 4 4 5 6 6 6 7 7 8 9 10

GFSNGP_250_rhum_372.txt.gz
RH
69 70 70 68 63 53 48 45 45 34 25 13 10 9 8 8 9 9 10 15 25 25 23 27 46 78 71 71 83 100 100 100 100 100 100 100 100 100 100 100 100 100 100 100
68 68 73 69 70 60 58 50 44 42 35 31 16 10 9 9 8 9 10 11 14 23 26 24 31 65 87 84 71 85 100 100 100 100 100 100 100 100 100 100 100 100 100 100
79 73 71 74 72 70 66 64 49 47 39 34 31 19 11 9 9 8 9 10 11 14 20 25 24 37 80 89 91 83 94 100 100 100 100 100 100 100 100 100 100 100 100 100
80 81 76 72 75 73 68 65 60 46 40 35 31 29 23 10 9 10 9 8 9 10 13 17 22 24 36 79 94 92 83 85 100 100 100 100 100 100 100 100 100 100 100 100
80 84 76 91 78 76 70 73 65 56 44 37 31 27 26 23 13 9 10 10 9 8 9 10 14 19 23 27 59 78 88 84 86 100 100 100 100 100 100 100 100 100 100 100
78 91 78 80 79 77 75 86 65 55 48 35 30 25 23 24 22 16 9 9 10 10 9 8 8 10 15 21 24 37 54 71 87 93 100 100 100 100 100 100 100 100 100 100
78 84 86 84 80 70 79 94 69 58 54 50 31 28 22 20 21 21 18 9 8 9 11 10 9 8 8 11 16 21 25 38 52 67 79 88 94 99 100 100 100 100 100 100
85 73 85 81 74 76 72 82 86 75 69 46 33 29 21 20 20 19 21 20 10 7 8 10 11 10 9 8 8 11 17 22 27 35 45 58 69 80 86 90 98 100 100 100
95 91 94 95 82 81 84 88 88 93 73 49 33 24 22 20 18 18 19 21 22 12 7 8 9 11 12 10 10 8 9 11 17 24 27 32 37 48 60 72 75 78 91 100
100 98 96 96 86 88 85 88 91 100 75 47 34 19 22 20 16 16 17 22 20 22 14 7 7 9 9 11 11 11 10 9 9 12 19 26 27 28 33 44 54 58 60 67
100 97 100 93 93 90 99 98 96 82 67 54 27 17 17 23 14 16 16 20 23 22 24 15 8 8 8 9 10 11 11 11 11 10 11 15 20 26 26 30 35 40 42 48
100 100 97 99 92 94 96 100 100 80 64 34 26 16 14 20 16 14 18 19 20 21 24 26 18 10 8 8 9 10 10 12 12 12 12 12 12 16 22 26 29 34 37 39
98 100 95 100 93 98 99 97 91 71 57 34 23 15 12 13 15 15 16 17 18 19 22 26 26 21 13 9 8 9 9 10 11 12 13 13 13 14 15 20 25 27 33 38
93 100 88 95 100 100 100 95 90 76 56 33 18 14 13 13 14 15 17 19 20 20 25 26 23 28 22 17 10 8 8 9 10 11 12 13 14 14 15 15 17 23 29 36
96 100 96 84 100 94 100 94 85 64 43 26 16 15 15 15 16 18 21 24 23 23 27 31 28 25 21 21 17 11 8 8 8 9 11 11 12 14 16 15 16 16 23 30
100 95 77 89 100 94 99 89 93 60 41 25 17 16 16 20 23 24 27 30 33 29 28 29 29 29 23 17 16 15 11 9 8 8 8 10 11 12 14 16 17 18 18 21
100 89 88 94 100 98 98 88 73 71 36 23 19 19 20 25 28 30 31 32 34 35 30 26 26 26 24 19 14 12 12 10 9 9 8 8 9 10 12 13 15 17 21 20
100 92 87 100 100 100 98 93 67 70 30 24 23 21 23 31 36 36 34 32 30 31 29 28 24 22 19 16 14 10 9 9 9 9 10 9 9 9 10 12 13 15 16 19
92 93 88 100 100 100 96 93 70 57 28 27 27 27 28 32 37 39 37 32 26 32 23 19 18 15 14 13 12 10 8 8 9 9 10 10 10 9 9 9 10 12 15 17
76 92 99 97 100 94 96 83 59 41 29 29 33 35 35 32 34 32 29 29 21 22 18 14 11 10 11 10 10 10 9 9 8 9 9 10 10 10 9 9 9 10 12 15
92 97 100 100 100 94 93 65 49 30 27 31 36 37 38 30 28 27 24 23 15 14 13 12 10 8 8 8 9 9 9 9 9 8 8 9 9 9 9 9 9 9 9 10
100 100 100 100 100 96 66 51 34 25 26 32 34 33 33 27 23 19 14 15 14 10 9 8 8 8 8 8 8 8 9 8 8 8 8 8 8 8 8 8 8 9 9 10
92 100 100 100 99 82 52 32 24 24 28 28 26 25 22 19 15 13 11 9 9 9 8 7 7 8 8 8 8 8 8 8 8 7 7 7 7 6 6 6 7 8 8 9
100 100 99 97 76 59 34 24 22 24 25 24 20 15 14 13 11 10 10 8 6 7 7 8 8 7 7 7 7 7 7 7 6 6 5 5 5 5 5 5 6 6 7 8
100 99 96 72 51 30 22 21 23 22 20 16 13 11 11 10 8 7 7 7 7 7 7 7 7 7 6 6 6 6 6 6 5 5 4 4 4 4 5 5 5 5 6 7
98 89 70 46 24 19 20 21 23 20 15 12 10 8 7 6 6 6 7 7 6 6 6 6 6 6 6 6 5 5 5 5 4 4 4 4 4 4 4 4 5 5 6 7
92 65 48 22 17 17 18 18 16 12 10 8 7 6 6 6 6 6 6 6 6 5 5 5 5 5 5 5 5 4 4 4 4 4 4 4 4 4 4 4 5 5 5 6

GFSNGP_250_rhum_375.txt.gz
RH
78 87 71 72 56 49 38 35 40 39 34 31 29 24 11 8 8 8 9 10 14 18 20 19 20 32 41 57 80 75 95 100 100 100 100 100 100 100 100 100 100 100 100 100
91 84 91 80 81 61 50 37 39 38 33 31 29 29 27 18 9 8 8 8 9 10 15 21 22 21 30 47 47 68 74 86 100 100 100 100 100 100 100 100 100 100 100 100
77 83 83 91 78 80 61 50 47 38 41 39 28 27 25 27 24 11 8 8 8 9 10 11 17 24 24 27 42 47 52 58 83 100 100 100 100 100 100 100 100 100 100 100
69 70 81 76 80 77 67 57 51 44 40 38 30 27 26 22 23 24 17 8 8 8 9 9 10 13 20 24 26 36 50 45 47 67 93 100 100 100 100 100 100 100 100 100
72 77 75 83 80 83 70 69 62 50 45 39 29 25 21 18 19 19 22 21 9 8 8 8 9 9 11 15 24 26 29 59 49 47 61 72 97 100 100 100 100 100 100 100
83 83 71 83 78 83 75 81 79 61 57 51 36 25 24 16 15 15 17 21 23 13 8 8 9 8 9 11 13 18 25 28 46 64 59 65 70 77 99 100 100 100 100 100
84 93 78 78 95 87 80 74 77 71 61 59 43 33 23 18 13 14 14 16 21 23 19 8 8 9 9 9 9 12 15 21 27 32 58 60 69 75 87 89 100 100 100 100
83 88 86 77 91 94 89 79 92 78 79 66 44 30 21 17 12 12 15 16 18 22 23 22 11 9 9 9 9 9 10 14 18 22 28 43 55 63 71 86 92 91 98 100
96 93 94 78 97 86 87 79 93 84 75 68 50 40 23 16 12 11 14 16 14 16 22 24 24 15 9 9 10 10 9 9 10 13 18 26 29 46 51 59 83 79 96 100
97 98 97 79 85 86 93 79 85 83 89 79 57 42 24 15 12 12 11 14 14 14 16 20 24 26 21 11 9 9 10 10 10 10 10 14 18 24 30 41 50 56 97 100
100 100 98 88 87 95 95 79 88 86 91 80 62 41 29 16 13 12 12 11 13 14 15 17 22 25 27 26 17 9 8 9 10 10 10 10 11 14 19 23 30 38 45 64
96 100 100 96 86 100 95 92 83 97 88 82 63 47 30 18 16 13 13 13 12 13 14 18 18 22 25 28 29 24 13 9 9 9 10 10 11 10 10 12 17 23 28 33
100 97 100 91 83 100 91 95 84 100 90 83 75 56 34 20 18 16 15 16 16 14 15 17 20 20 23 24 27 30 28 20 10 8 9 9 10 10 11 11 10 12 15 21
100 97 100 90 86 100 88 95 86 100 91 83 60 48 37 23 19 21 20 20 20 20 19 20 20 19 24 22 22 25 27 28 25 17 10 8 8 9 10 10 12 12 11 12
100 95 100 92 95 98 91 95 86 100 97 89 64 70 36 26 22 24 28 29 26 25 26 28 25 23 25 22 20 20 22 24 26 26 22 17 10 8 8 9 10 11 13 13
100 96 100 88 97 84 100 84 94 100 95 93 83 81 42 27 25 29 33 38 39 36 35 36 36 30 27 25 24 23 21 21 23 24 23 22 20 14 8 7 8 9 11 13
100 96 95 96 84 89 98 82 100 99 100 96 89 74 36 30 32 35 38 43 42 42 43 42 37 32 33 30 28 24 21 20 19 19 19 20 20 18 15 10 8 7 8 10
100 94 95 99 89 100 96 99 100 100 100 92 88 55 30 30 37 39 42 41 38 36 35 35 30 28 25 22 20 18 17 16 14 14 14 14 15 14 12 12 10 8 8 8
100 90 99 96 90 97 90 100 100 99 100 91 86 38 29 28 34 38 40 34 28 26 24 19 18 18 18 17 15 13 12 11 10 10 10 10 11 12 11 11 11 10 8 8
88 96 99 96 97 90 100 100 100 100 96 88 70 32 29 28 30 33 31 28 18 18 16 16 14 12 11 12 12 10 9 9 8 9 8 8 9 9 10 9 10 10 9 9
100 99 100 99 100 100 100 100 100 100 83 79 38 29 26 26 22 22 20 16 12 11 11 11 10 9 9 8 8 8 7 7 7 6 7 7 7 7 8 9 9 10 10 9
100 100 100 100 100 100 100 100 99 90 82 47 25 22 22 21 16 14 11 9 9 7 8 7 6 7 8 7 6 6 7 7 7 7 6 6 7 7 8 9 9 9 9 9
100 100 100 100 100 100 100 100 89 68 64 25 21 18 15 14 12 9 8 6 6 6 6 6 6 6 6 7 6 7 6 7 7 7 7 7 7 7 7 8 9 9 9 9
100 100 96 100 99 98 99 93 65 59 25 19 17 14 11 10 8 6 6 6 6 6 6 6 6 6 6 6 6 6 6 6 7 7 7 7 7 7 7 7 8 8 8 8
100 94 100 92 93 87 83 53 43 21 16 14 12 10 8 6 6 6 5 5 5 5 5 5 5 5 5 6 6 6 6 6 6 6 6 7 7 7 7 7 8 8 8 8
94 97 89 86 75 71 45 30 16 14 12 11 9 7 6 6 5 5 5 5 4 4 4 4 4 4 4 4 4 5 5 5 5 6 6 6 6 6 7 7 7 7 6 6
97 91 80 67 54 32 21 12 11 10 8 6 6 6 6 5 4 4 4 4 3 3 3 3 3 4 4 4 4 4 4 4 4 5 5 5 6 6 6 6 6 5 5 5

GFSNGP_250_rhum_378.txt.gz
RH
75 63 69 70 72 66 69 47 49 43 38 34 33 26 23 23 13 8 8 8 11 22 21 20 18 28 28 30 32 37 51 92 100 100 100 100 100 100 100 100 100 100 100 100
78 75 67 68 77 72 65 70 49 54 50 47 39 30 25 21 21 22 8 8 8 8 14 21 20 20 29 33 35 46 52 61 77 91 100 100 100 100 100 100 100 100 100 100
77 84 78 74 68 72 87 70 59 56 58 49 50 40 27 18 18 18 21 14 7 8 8 8 13 20 22 25 34 38 46 53 70 85 98 100 100 100 100 100 100 100 100 100
65 84 79 86 82 70 74 88 74 68 58 64 51 53 40 29 16 15 15 18 20 9 7 8 8 8 13 20 21 25 36 42 54 60 81 91 100 100 100 100 100 100 100 100
52 64 87 80 92 78 68 90 85 69 63 70 64 60 61 42 24 16 13 13 16 18 15 7 7 8 8 9 14 21 21 25 36 44 52 60 74 93 100 100 100 100 100 100
64 60 72 77 96 87 81 77 83 74 67 63 75 70 61 54 30 18 13 11 10 13 15 17 9 7 7 8 8 9 13 18 21 27 39 45 48 46 63 97 100 100 100 100
71 65 72 74 84 88 86 80 82 72 74 64 65 77 70 64 36 22 14 10 9 9 12 13 16 14 8 8 8 8 8 9 13 17 21 27 38 44 44 46 57 91 100 100
66 72 74 73 79 89 87 89 86 72 75 69 70 82 81 63 61 28 17 13 10 9 9 14 14 14 17 11 8 8 8 8 8 10 13 17 23 26 34 38 40 46 56 88
70 85 75 77 85 82 93 83 97 82 73 78 66 78 77 72 66 49 23 17 13 10 9 10 15 15 16 18 18 11 9 9 9 9 9 10 13 16 22 26 38 37 41 51
74 86 81 73 81 88 97 90 95 81 80 77 72 68 84 74 69 59 26 21 17 12 11 10 11 13 14 17 21 20 18 12 10 9 9 9 9 10 12 15 19 30 39 34
92 92 89 84 90 97 98 90 91 85 88 85 74 75 91 76 71 55 35 28 22 18 12 13 13 12 13 13 15 16 19 20 18 12 10 10 9 9 10 11 13 17 19 27
79 96 95 94 97 100 100 95 95 84 95 88 81 74 89 78 72 61 73 28 28 26 23 16 18 18 15 15 14 16 17 17 21 21 19 12 10 10 10 10 10 11 13 17
95 100 89 88 80 100 92 100 96 84 95 89 89 79 89 89 68 59 46 49 29 30 32 34 30 24 24 28 23 16 17 17 17 20 22 21 20 12 8 9 11 10 10 10
100 99 95 95 88 88 86 93 93 88 95 97 89 86 90 87 81 62 55 70 37 30 34 39 41 38 37 41 37 32 27 22 22 20 19 19 18 16 16 12 7 8 10 10
100 91 98 100 94 99 92 92 98 90 92 100 89 87 97 95 80 73 63 74 41 34 34 38 42 41 41 41 44 42 37 33 27 24 22 20 19 19 18 17 18 15 8 8
98 98 100 100 99 81 92 92 91 99 99 100 92 97 98 93 91 78 69 63 37 35 33 36 39 41 33 33 34 33 32 30 27 26 24 22 21 20 19 19 20 20 19 15
100 100 100 100 88 81 91 96 94 96 100 97 100 100 95 96 93 76 72 43 30 28 26 26 32 30 25 24 22 22 21 20 18 19 18 16 16 16 16 16 17 18 18 17
100 100 100 99 79 87 95 100 98 99 96 90 100 98 85 94 86 75 46 27 24 21 18 18 22 19 18 17 15 14 14 14 14 13 12 12 12 12 12 13 14 15 16 17
100 100 94 81 86 88 100 100 100 99 94 95 100 96 80 76 52 51 29 22 20 15 13 14 14 13 14 13 12 11 10 10 10 10 9 10 10 10 10 9 10 11 13 14
98 100 81 87 96 94 100 99 100 98 98 96 91 78 73 46 36 24 18 17 16 11 10 10 9 9 8 8 8 8 8 8 8 8 8 8 8 8 7 7 7 8 8 9
96 90 91 83 90 97 96 100 95 99 95 83 73 59 36 30 20 15 13 11 11 8 7 7 7 6 6 6 6 6 6 5 6 6 6 6 6 6 6 6 6 7 7 7
99 99 81 81 87 99 100 95 96 87 72 74 64 33 20 18 14 12 10 8 7 6 6 6 6 6 6 6 6 6 5 5 5 5 5 5 5 5 5 5 5 5 6 6
100 78 84 84 91 100 98 97 95 76 65 63 37 19 14 13 11 8 7 6 6 5 5 6 5 5 5 5 6 5 5 5 5 6 5 5 5 5 5 5 5 5 5 5
90 86 79 85 94 95 95 91 78 63 53 33 17 12 10 9 7 5 5 5 5 5 4 4 4 4 4 4 4 4 4 5 5 5 5 5 5 5 5 5 5 5 6 6
87 82 87 92 96 84 78 68 62 58 35 18 12 10 8 6 5 5 5 4 4 4 4 3 3 3 3 3 3 3 3 4 4 4 4 5 5 5 5 5 5 6 6 6
85 88 94 88 80 71 58 53 47 24 13 10 9 7 5 5 4 4 4 4 3 3 3 3 2 2 3 3 3 3 3 3 3 4 4 4 4 4 5 5 5 5 5 6
93 93 79 77 65 56 49 36 18 11 9 7 6 5 4 4 4 3 3 3 2 2 2 2 2 2 2 2 2 3 3 3 3 3 3 4 4 4 4 4 5 5 5 6